This is the latest recevied weather packets stored in our database for station/object KG4QXL-1. If no packets are shown the sender has not sent any weather packets the latest 10 day(s).
| Time | Temp. | Humidity | Pressure | Rain* | Wind** | Luminosity | Snow |
|---|---|---|---|---|---|---|---|
| 1777880158 | 5° C | 81% | 1022.5 hPa | 0 mm | - | 0 W/m² | - |
| 1777879558 | 5° C | 80% | 1022.5 hPa | 0 mm | - | 0 W/m² | - |
| 1777876598 | 5° C | 80% | 1022.9 hPa | 0 mm | - | 0 W/m² | - |
| 1777874758 | 5° C | 79% | 1023.2 hPa | 0 mm | - | 0 W/m² | - |
| 1777873559 | 5° C | 80% | 1023.3 hPa | 0 mm | - | 0 W/m² | - |
| 1777869359 | 3.89° C | 78% | 1023.4 hPa | 0 mm | - | 0 W/m² | - |
| 1777865759 | 3.33° C | 79% | 1023.5 hPa | 0 mm | - | 0 W/m² | - |
| 1777865158 | 3.89° C | 77% | 1023.2 hPa | 0 mm | - | 0 W/m² | - |
| 1777863958 | 3.33° C | 78% | 1023 hPa | 0 mm | - | 0 W/m² | - |
| 1777862178 | 5° C | 69% | 1022.7 hPa | 0 mm | - | 0 W/m² | - |
| 1777854958 | 10° C | 50% | 1020.9 hPa | 0 mm | - | 0 W/m² | - |
| 1777854358 | 10° C | 48% | 1020.8 hPa | 0 mm | - | 0 W/m² | - |
| 1777853158 | 12.22° C | 44% | 1020.7 hPa | 0 mm | - | 3 W/m² | - |
| 1777851959 | 14.44° C | 38% | 1020.5 hPa | 0 mm | - | 13 W/m² | - |
| 1777851358 | 15° C | 34% | 1020.5 hPa | 0 mm | - | 18 W/m² | - |
| 1777849558 | 15.56° C | 32% | 1020.2 hPa | 0 mm | - | 39 W/m² | - |
| 1777847759 | 16.67° C | 28% | 1019.9 hPa | 0 mm | - | 62 W/m² | - |
| 1777844758 | 17.22° C | 26% | 1020.2 hPa | 0 mm | - | 234 W/m² | - |
| 1777844158 | 17.78° C | 27% | 1020.2 hPa | 0 mm | - | 265 W/m² | - |
| 1777841158 | 18.33° C | 28% | 1020.5 hPa | 0 mm | - | 422 W/m² | - |
| 1777836358 | 17.78° C | 28% | 1021.2 hPa | 0 mm | - | 638 W/m² | - |
| 1777835178 | 16.67° C | 28% | 1021.5 hPa | 0 mm | - | 685 W/m² | - |
| 1777833958 | 16.67° C | 31% | 1021.8 hPa | 0 mm | - | 726 W/m² | - |
| 1777826758 | 13.89° C | 37% | 1023 hPa | 0 mm | - | 814 W/m² | - |
| 1777820778 | 11.67° C | 39% | 1024 hPa | 0 mm | - | 128 W/m² | - |
* Rain latest hour (hover to see other rain measurements)
** Current wind speed in m/s (hover to see current wind gust speed)